[[{"header":{"parameterUnit":"m.s-1","parameterCategory":1,"la1":30.2991,"la2":30.254,"lo1":-89.0895,"lo2":-89.0444,"dy":0.0017,"dx":0.0017,"nx":28,"ny":28,"refTime":"2024-03-27T21:00:00:Z","depth":0,"parameterNumber":2,"parameterNumberName":"U-component_of_WINDS"},"data":[0,0,0,0,0,0,0,0,0,0,0,0,0,0,0,0,0,0,0,0,0,0,0,0,0,0,0,0,0,0,0,0,0,0,0,0,0,0,0,0,0,0,0,0,0,0,0,0,0,0,0,0,0,0,0,0,0,0,1.8928,1.8928,0,1.8929,1.8929,1.8929,1.8901,1.8901,1.89,1.8899,1.8901,1.8901,1.8902,0,0,0,0,0,0,0,0,0,0,0,0,0,1.8902,1.8903,1.8928,1.8928,1.8928,1.8929,1.8929,1.8929,1.8902,1.8901,1.89,1.8899,1.89,1.8901,1.8902,0,0,0,0,0,0,0,0,0,0,0,0,0,1.8909,1.8903,1.8928,1.8914,1.8913,1.8929,1.8929,1.8929,1.8902,1.8901,1.89,1.8898,1.89,1.8901,1.8902,1.8931,0,0,1.8905,1.8906,0,0,0,0,0,0,0,0,1.8909,1.891,1.8916,1.8915,1.8914,1.8914,1.8921,1.893,1.8902,1.8906,1.8899,1.8898,1.8906,1.8906,1.8909,1.8931,1.8931,1.8906,1.8906,1.8907,1.8907,0,0,0,0,0,0,0,1.8909,1.891,1.8928,1.8916,1.8915,1.8908,1.8908,1.8922,1.8912,1.8906,1.8904,1.8904,1.8905,1.8908,1.8909,1.8931,1.8906,1.8907,1.8907,1.8908,1.8978,1.8979,0,0,0,0,0,0,1.891,1.891,1.8928,1.8928,1.8909,1.891,1.8909,1.8915,1.8912,1.891,1.8905,1.8903,1.8907,1.8908,1.8909,1.8943,1.8907,1.8908,1.8908,1.8977,1.8979,1.898,0,0,0,0,0,0,1.8909,1.8912,1.8928,1.8919,1.892,1.8911,1.8918,1.8916,1.8919,1.8912,1.891,1.891,1.8906,1.8907,1.8926,1.8942,1.8908,1.8909,1.8976,1.8978,1.8979,1.9011,0,0,0,0,0,0,1.8909,1.8912,1.8922,1.8919,1.8921,1.8945,1.8919,1.8916,1.8921,1.8918,1.8916,1.8914,1.8905,1.8925,1.8927,1.8943,1.891,1.8974,1.8976,1.8979,1.9008,1.9013,1.9018,0,0,0,0,0,1.8908,1.8931,1.8923,1.8925,1.8934,1.8946,1.8947,1.8936,1.8922,1.8933,1.8929,1.8914,1.8941,1.8927,1.8929,1.8946,1.8973,1.8976,1.8978,1.9006,1.9012,1.9018,0,0,0,0,0,0,1.8936,1.893,1.8921,1.8944,1.8946,1.8941,1.8954,1.8943,1.8949,1.8946,1.8932,1.8932,1.8953,1.8952,1.8936,1.8975,1.8954,1.8958,1.8974,1.898,1.8985,1.8984,1.8911,0,0,0,0,0,1.8945,1.8955,1.8949,1.897,1.8971,1.8963,1.8968,1.8959,1.8961,1.8961,1.8958,1.896,1.8969,1.8975,1.8982,1.9008,1.9008,1.9021,1.9026,1.903,1.9033,1.9047,1.9053,1.8989,1.8989,1.8989,0,0,1.8962,1.8961,1.8968,1.8975,1.8976,1.8987,1.8963,1.8976,1.8984,1.8963,1.898,1.8979,1.898,1.9003,1.9012,1.9002,1.9051,1.9034,1.9037,1.9038,1.9051,1.9057,1.9062,1.8991,1.899,1.899,0,0,1.9001,1.9001,1.9018,1.9019,1.902,1.9015,1.9019,1.9017,1.9015,1.9032,1.9017,1.9027,1.9042,1.9044,1.9047,1.9088,1.9076,1.9091,1.9116,1.913,1.9135,1.914,1.9154,1.916,1.9094,1.9095,1.9095,0,1.9023,1.9038,1.9028,1.9042,1.9046,1.9028,1.9045,1.9047,1.9051,1.9054,1.9043,1.9063,1.9062,1.9085,1.9096,1.9099,1.9103,1.9091,1.9136,1.914,1.9144,1.9157,1.9163,1.9096,1.9096,1.9096,1.9096,0,1.9066,1.9077,1.9091,1.9095,1.9101,1.9117,1.9109,1.9116,1.9108,1.9104,1.9123,1.9122,1.9129,1.9135,1.9127,1.9157,1.9151,1.9138,1.9117,1.9152,1.9164,1.917,1.9099,1.9098,1.9098,1.9097,0,0,1.9119,1.9119,1.9124,1.9126,1.9127,1.9136,1.9152,1.9159,1.9166,1.917,1.9182,1.9197,1.9185,1.9189,1.9181,1.9194,1.9227,1.9179,1.9179,1.9187,1.926,1.9269,1.9275,1.9219,1.922,1.9221,1.926,0,1.9155,1.9181,1.9173,1.9199,1.921,1.9195,1.9209,1.9211,1.9208,1.9218,1.9215,1.9225,1.9209,1.9211,1.9223,1.922,1.9241,1.9217,1.923,1.9231,1.9229,1.9282,1.9291,1.9327,1.9265,1.9265,1.9266,0,1.9201,1.9207,1.9235,1.9235,1.924,1.9252,1.9259,1.9268,1.9271,1.9268,1.9273,1.9263,1.9279,1.926,1.9282,1.9266,1.9271,1.9271,1.9272,1.9271,1.9249,1.9282,1.9339,1.9344,1.9274,1.9273,1.9273,0,1.9236,1.9252,1.9271,1.9273,1.9274,1.9283,1.9284,1.9286,1.9292,1.9299,1.9302,1.9311,1.9315,1.9322,1.9315,1.9302,1.9338,1.9318,1.9336,1.9336,1.9343,1.9342,1.94,1.9348,1.9348,1.9348,1.9348,0,1.9277,1.9295,1.9287,1.9298,1.9317,1.9309,1.9328,1.9327,1.933,1.9341,1.9329,1.934,1.933,1.9341,1.9336,1.9355,1.9357,1.9355,1.9353,1.9355,1.9355,1.9357,1.9354,1.9349,1.9349,1.9349,1.9349,0,1.9319,1.9315,1.9334,1.9334,1.9335,1.9349,1.9349,1.936,1.9358,1.9372,1.9375,1.9371,1.9382,1.9377,1.9389,1.9385,1.941,1.9405,1.9408,1.9407,1.9425,1.9423,1.9485,1.9493,1.9437,1.9438,1.9438,0,1.9345,1.9358,1.936,1.9367,1.9369,1.938,1.9386,1.9379,1.9386,1.9391,1.9401,1.9412,1.942,1.944,1.9438,1.9447,1.9442,1.9464,1.9443,1.9445,1.9442,1.944,1.9442,1.9467,1.9468,1.9468,1.9469,0,1.9391,1.9388,1.9397,1.9406,1.9414,1.9421,1.9426,1.9433,1.9426,1.9434,1.9446,1.9453,1.9466,1.9476,1.9485,1.9486,1.9476,1.9475,1.948,1.9481,1.9483,1.9482,1.9418,1.9473,1.9473,1.9473,1.9472,1.9472,1.9425,1.9436,1.944,1.945,1.9454,1.946,1.9471,1.947,1.948,1.949,1.9485,1.9499,1.9504,1.9514,1.9517,1.9528,1.952,1.9527,1.9528,1.953,1.9532,1.9482,1.953,1.953,1.953,1.953,1.953,0,1.9469,1.9472,1.9482,1.949,1.95,1.9491,1.9497,1.9505,1.9517,1.9522,1.9531,1.9545,1.9556,1.9556,1.9567,1.9576,1.9571,1.9579,1.9577,1.9578,1.9539,1.9534,1.9582,1.9582,1.9582,1.9582,1.9582,1.9582,1.9494,1.9512,1.9511,1.9531,1.9534,1.9547,1.9552,1.9557,1.9561,1.9578,1.9587,1.9588,1.9591,1.9602,1.9612,1.9611,1.9615,1.9624,1.9622,1.9585,1.958,1.9575,1.957,1.9625,1.9625,1.9659,1.966,1.966]},{"header":{"parameterUnit":"m.s-1","parameterCategory":1,"la1":30.2991,"la2":30.254,"lo1":-89.0895,"lo2":-89.0444,"dy":0.0017,"dx":0.0017,"nx":28,"ny":28,"refTime":"2024-03-27T21:00:00:Z","depth":0,"parameterNumber":3,"parameterNumberName":"V-component_of_WINDS"},"data":[0,0,0,0,0,0,0,0,0,0,0,0,0,0,0,0,0,0,0,0,0,0,0,0,0,0,0,0,0,0,0,0,0,0,0,0,0,0,0,0,0,0,0,0,0,0,0,0,0,0,0,0,0,0,0,0,0,0,-6.1889,-6.1891,0,-6.208,-6.2082,-6.2084,-6.2039,-6.2035,-6.2031,-6.2028,-6.2219,-6.2227,-6.2236,0,0,0,0,0,0,0,0,0,0,0,0,0,-6.1482,-6.1489,-6.1889,-6.1891,-6.1894,-6.208,-6.2082,-6.2085,-6.2039,-6.2035,-6.2031,-6.2026,-6.2216,-6.2226,-6.2237,0,0,0,0,0,0,0,0,0,0,0,0,0,-6.1664,-6.1492,-6.1889,-6.1894,-6.1896,-6.2079,-6.2082,-6.2085,-6.204,-6.2035,-6.2029,-6.2024,-6.2213,-6.2225,-6.2238,-6.2427,0,0,-6.2277,-6.2283,0,0,0,0,0,0,0,0,-6.1654,-6.1679,-6.1891,-6.1894,-6.1897,-6.203,-6.2009,-6.22,-6.2042,-6.1985,-6.2028,-6.2022,-6.216,-6.2177,-6.2225,-6.2435,-6.2444,-6.2278,-6.2286,-6.2291,-6.2295,0,0,0,0,0,0,0,-6.1641,-6.1671,-6.1964,-6.1894,-6.1897,-6.1885,-6.1905,-6.2045,-6.2101,-6.199,-6.1987,-6.2011,-6.2161,-6.2213,-6.2229,-6.2446,-6.2278,-6.2289,-6.2297,-6.2302,-6.2821,-6.2827,0,0,0,0,0,0,-6.1627,-6.166,-6.1958,-6.197,-6.1759,-6.1897,-6.1919,-6.1993,-6.21,-6.2111,-6.2015,-6.2008,-6.2194,-6.2214,-6.2236,-6.2464,-6.2291,-6.2303,-6.2311,-6.2815,-6.2823,-6.2829,0,0,0,0,0,0,-6.1618,-6.1654,-6.1951,-6.1815,-6.1852,-6.191,-6.1993,-6.1999,-6.2051,-6.2119,-6.2128,-6.2058,-6.219,-6.2218,-6.238,-6.247,-6.2309,-6.2321,-6.2808,-6.2818,-6.2826,-6.2922,0,0,0,0,0,0,-6.1607,-6.1651,-6.1724,-6.1817,-6.1859,-6.2093,-6.1998,-6.2007,-6.2074,-6.2066,-6.2161,-6.2172,-6.2188,-6.2361,-6.2393,-6.2485,-6.2331,-6.28,-6.2812,-6.2823,-6.2911,-6.2934,-6.2953,0,0,0,0,0,-6.1592,-6.1742,-6.1728,-6.1764,-6.1952,-6.2099,-6.2123,-6.214,-6.2081,-6.2155,-6.2198,-6.2169,-6.2455,-6.2378,-6.2413,-6.2511,-6.2795,-6.2809,-6.2822,-6.2902,-6.2929,-6.2952,0,0,0,0,0,0,-6.1658,-6.1755,-6.174,-6.1925,-6.2004,-6.2091,-6.2184,-6.2168,-6.2264,-6.2253,-6.2268,-6.229,-6.2456,-6.2499,-6.2411,-6.2699,-6.2616,-6.2638,-6.2665,-6.2691,-6.2712,-6.2698,-6.2341,0,0,0,0,0,-6.1694,-6.1806,-6.1884,-6.204,-6.208,-6.2126,-6.219,-6.2196,-6.2278,-6.2311,-6.2366,-6.2446,-6.2554,-6.2624,-6.2727,-6.2917,-6.2937,-6.3001,-6.3021,-6.3038,-6.3057,-6.3161,-6.3191,-6.2875,-6.2875,-6.2875,0,0,-6.1769,-6.1836,-6.1906,-6.2055,-6.2117,-6.2232,-6.2154,-6.2279,-6.2364,-6.233,-6.2487,-6.253,-6.262,-6.2797,-6.2877,-6.2838,-6.3148,-6.3056,-6.3069,-6.3079,-6.3178,-6.3208,-6.3235,-6.2884,-6.2883,-6.2881,0,0,-6.1966,-6.2028,-6.2165,-6.2229,-6.2325,-6.2354,-6.2386,-6.2476,-6.2504,-6.2662,-6.2639,-6.2739,-6.2925,-6.299,-6.3048,-6.3269,-6.3246,-6.3302,-6.3411,-6.3512,-6.3537,-6.3559,-6.3639,-6.3667,-6.332,-6.332,-6.332,0,-6.2048,-6.2222,-6.2237,-6.2365,-6.2431,-6.2406,-6.2545,-6.2605,-6.2729,-6.2775,-6.2729,-6.2962,-6.302,-6.3212,-6.3266,-6.3313,-6.3351,-6.3292,-6.3532,-6.3554,-6.3575,-6.3652,-6.3682,-6.3327,-6.3326,-6.3325,-6.3325,0,-6.2318,-6.2439,-6.2538,-6.266,-6.2737,-6.2869,-6.2903,-6.2979,-6.2978,-6.3012,-6.3173,-6.3242,-6.3359,-6.3404,-6.3404,-6.3597,-6.357,-6.3528,-6.3446,-6.3611,-6.3684,-6.3713,-6.3336,-6.3333,-6.3331,-6.333,0,0,-6.2563,-6.2692,-6.2728,-6.2783,-6.2887,-6.298,-6.311,-6.3226,-6.3291,-6.3376,-6.3486,-6.3644,-6.3606,-6.3671,-6.3678,-6.3766,-6.3938,-6.3713,-6.3716,-6.3754,-6.4156,-6.4188,-6.4222,-6.3923,-6.3928,-6.3933,-6.4149,0,-6.277,-6.3003,-6.302,-6.3229,-6.3341,-6.3319,-6.3432,-6.3507,-6.3542,-6.3641,-6.3677,-6.379,-6.3731,-6.377,-6.3856,-6.3899,-6.4019,-6.3884,-6.4025,-6.403,-6.4005,-6.4259,-6.4294,-6.4494,-6.4177,-6.4182,-6.4185,0,-6.3044,-6.3139,-6.336,-6.3449,-6.3496,-6.3598,-6.3706,-6.3801,-6.3885,-6.3903,-6.3977,-6.3971,-6.4104,-6.4016,-6.4199,-6.4107,-6.4165,-6.4195,-6.4203,-6.4218,-6.4119,-6.4282,-6.4558,-6.4589,-6.4229,-6.4226,-6.4223,0,-6.3202,-6.3385,-6.3542,-6.3589,-6.3696,-6.3768,-6.3816,-6.3894,-6.3963,-6.4056,-6.4101,-6.4208,-6.4267,-6.4349,-6.4372,-6.4305,-6.4555,-6.4468,-6.4574,-6.4574,-6.4629,-6.4625,-6.492,-6.4664,-6.4664,-6.4663,-6.4663,0,-6.3432,-6.3569,-6.3615,-6.3711,-6.3863,-6.388,-6.403,-6.4072,-6.4143,-6.4246,-6.4231,-6.4328,-6.4352,-6.4453,-6.4471,-6.4621,-6.4647,-6.4666,-6.4669,-6.4668,-6.4666,-6.4708,-6.4695,-6.4671,-6.4669,-6.4668,-6.4666,0,-6.3636,-6.3672,-6.3841,-6.3928,-6.3953,-6.4061,-6.4135,-6.4227,-6.4259,-6.439,-6.4421,-6.4472,-6.459,-6.462,-6.4761,-6.4773,-6.495,-6.494,-6.4923,-6.4923,-6.5027,-6.5018,-6.536,-6.5406,-6.5119,-6.5122,-6.5124,0,-6.3781,-6.3886,-6.3985,-6.4054,-6.4105,-6.4216,-6.4286,-6.4307,-6.438,-6.4484,-6.4564,-6.468,-6.4775,-6.4965,-6.5013,-6.5121,-6.5113,-6.5226,-6.5129,-6.5125,-6.5117,-6.5111,-6.5122,-6.5245,-6.5248,-6.525,-6.5252,0,-6.4037,-6.4049,-6.4152,-6.4262,-6.4347,-6.4433,-6.4516,-6.4573,-6.4605,-6.4688,-6.481,-6.4884,-6.5028,-6.5144,-6.5253,-6.5299,-6.5282,-6.5282,-6.5312,-6.5313,-6.53,-6.531,-6.4974,-6.5274,-6.5272,-6.5271,-6.5269,-6.5269,-6.4217,-6.4309,-6.4393,-6.4508,-6.4573,-6.4651,-6.4742,-6.4786,-6.4888,-6.5009,-6.5014,-6.5147,-6.5227,-6.5372,-6.5425,-6.5528,-6.5493,-6.5537,-6.5549,-6.5559,-6.5569,-6.5282,-6.5547,-6.5546,-6.5546,-6.5545,-6.5545,0,-6.4473,-6.4526,-6.4631,-6.4749,-6.4839,-6.4815,-6.4905,-6.4982,-6.51,-6.5177,-6.5271,-6.5411,-6.5523,-6.558,-6.5691,-6.5763,-6.5758,-6.5792,-6.5787,-6.5799,-6.5593,-6.5556,-6.5794,-6.5794,-6.5794,-6.5794,-6.5794,-6.5794,-6.4617,-6.4772,-6.4795,-6.4981,-6.5033,-6.5164,-6.5218,-6.5289,-6.5351,-6.5509,-6.5603,-6.564,-6.5709,-6.5825,-6.5927,-6.5941,-6.5983,-6.6022,-6.6031,-6.5838,-6.5813,-6.5789,-6.5754,-6.603,-6.6031,-6.6229,-6.623,-6.6232]}]]